sat.trackr.live / text

‹ back to catalog

STARLINK-35389

NORAD 66434 · 2025-259N

PAYLOAD ACTIVE UNKNOWN

§ Identity

Operator
Country
US
Launch date
2025-11-11
Launch site
AFETR
Launch vehicle
Mass (kg)
RCS (m²)

Purposes: comms

External: N2YO · Heavens-Above · Gunter

§ Orbital elements

Epoch: 2026-09-20T08:07:24.146688Z

Period
94.27 min
Inclination
42.9989°
Eccentricity
0.0001496
Mean motion
15.27587539 rev/d
Perigee alt
482.0 km
Apogee alt
484.1 km
Semi-major
6,861.2 km
B*
4.6044e-4
RAAN
254.7818°
Arg perigee
271.9826°
Mean anomaly
88.0854°
Rev number
4,926

§ Raw data

STARLINK-353891 66434U 25259N   26263.33847392  .00012433  00000+0  46044-3 0  99972 66434  42.9989 254.7818 0001496 271.9826  88.0854 15.27587539 49262

JSON: /api/v1/satellites/66434 · /tle

For live sub-satellite position, see the globe view (requires WebGL).

§ Visibility from observer

Set your observer location to see the next 7 days of passes ≥ 10°. The values pass through the URL so the page stays shareable.

No JS? Fill the form by hand. The geolocation button needs JavaScript.